User: anonymous   Login
Location: Unspecified
(0.0000°N, 0.0000°E)
Time: 18:05:31
(UTC+00:00)
Language:

SINAH 1 - Orbit

View from above orbital plane
View from above orbital plane
View from above satellite
View from above satellite

Ground track
Ground track

The orbit is defined by the following mean orbital elements,

1 28893U          26106.27459573 +.00000000 +00000-0 +43369-4 0 00009
2 28893  98.2758 240.2656 0015720 109.1368 251.1538 14.64113936    02
Epoch (UTC): 16 April 2026 06:35:25
Eccentricity: 0.0015720
inclination: 98.2758°
perigee height: 669 km
apogee height: 691 km
right ascension of ascending node: 240.2656°
argument of perigee: 109.1368°
revolutions per day: 14.64113936
mean anomaly at epoch: 251.1538°

The dashed part of the orbit path shows where the satellite is in the earth's shadow,  

DLR